Other Public Products
Issued by NWS Grand Forks, ND

Home | Current Version | Previous Version | Text Only | Print | Product List | Glossary Off
Versions: 1 2 3 4 5 6 7 8 9 10 11 12 13 14 15 16 17 18 19 20 21 22 23 24 25 26 27 28 29 30 31 32 33 34 35 36 37 38 39 40 41 42 43 44 45 46 47 48 49 50

000
FPUS83 KFGF 231331
OPUFGF
PRAIRIE TO PINES WEATHER ROUNDUP
NATIONAL WEATHER SERVICE EASTERN NORTH DAKOTA/GRAND FORKS ND
800 AM CDT WED APR 23 2014

 **SATELLITE DATA USED TO AUGMENT SKY COVER AT AUTOMATED STATIONS**
 *****  WEATHER ACROSS EASTERN NORTH DAKOTA  *****

CITY           SKY/WX    TMP DP  RH WIND       PRES   REMARKS
GRAND FORKS    CLOUDY    45  29  53 SE15      29.91S
GRAND FORKS AF CLOUDY    44  31  59 SE14      29.91S
GRAND CITY NWS   N/A     46 N/A N/A SE18        N/A
BUXTON           N/A     45  37  74 SE14        N/A
DEVILS LAKE    CLOUDY    39  30  70 SE20G26   29.78S
FARGO          LGT RAIN  46  34  62 SE20G29   29.92S
WAHPETON ARPT  CLOUDY    41  36  81 SE20G29   29.94F
$$

 *****  WEATHER ACROSS CENTRAL AND WESTERN NORTH DAKOTA  *****

CITY           SKY/WX    TMP DP  RH WIND       PRES   REMARKS
JAMESTOWN      CLOUDY    45  42  89 SE29G38   29.74F
BISMARCK       CLOUDY    50  38  63 E23G31    29.63R
MINOT          RAIN      49  43  80 SE26G39   29.61F
MINOT AFB      DRIZZLE   44  44  99 E14       29.62F
GARRISON         N/A     47  32  56 SE25G33   29.58F
WILLISTON      PTSUNNY   51  38  60 SE24G36   29.43S
DICKINSON      PTSUNNY   47  35  63 E22G29    29.43R
HETTINGER      CLOUDY    52  35  52 SE20      29.44S
$$

 *****  OTHER OBSERVATIONS NORTHEAST NORTH DAKOTA  *****

CITY           SKY/WX    TMP DP  RH WIND       PRES   REMARKS
WALHALLA       FAIR      39  32  75 SE10      29.91F
LANGDON        FAIR      41  28  60 SE23G30   29.84F
CAVALIER       FAIR      39  32  75 SE8       29.91F
GRAFTON        FAIR      41  30  65 SE14      29.91F
CANDO          CLOUDY    45  32  61 SE22G29   29.78F
FORT TOTTEN      N/A     42  36  78 SE13      29.95S
ROLLA          CLOUDY    41  34  75 SE21G30   29.78S
RUGBY          MIX PCPN  43  39  87 SE22G31   29.72R
 ***** THE ABOVE OBSERVATIONS ARE NON NWS ARE NOT QUALITY
        CONTROLLED AND MAY MIS-REPORT RAIN FOR SNOW...
$$

 *****  OTHER OBSERVATIONS SOUTHEAST NORTH DAKOTA *****

CITY           SKY/WX    TMP DP  RH WIND       PRES   REMARKS
COOPERSTOWN    LGT RAIN  41  41 100 SE21      29.83R
VALLEY CITY    PTSUNNY   43  43 100 SE23G30   29.83F FOG
OAKES          CLOUDY    46  41  81 SE28G33   29.81S
GWINNER        CLOUDY    45  43  93 SE29G36   29.85S
BUFFALO        NOT AVBL
WYNDMERE       NOT AVBL
 ***** THE ABOVE OBSERVATIONS ARE NON NWS ARE NOT QUALITY
       CONTROLLED AND MAY MIS-REPORT RAIN FOR SNOW...
$$

  *****  WEATHER ACROSS NORTHERN MINNESOTA  *****

CITY           SKY/WX    TMP DP  RH WIND       PRES   REMARKS
FLAG ISLAND    MOSUNNY   37  21  52 SE8       30.05S
WARROAD        PTSUNNY   41  27  56 SE8       30.03S
ROSEAU         CLOUDY    43  25  49 SE10      30.00F
HALLOCK        CLOUDY    45  27  49 SE16      29.94F
THF RVR FALLS  CLOUDY    43  23  45 E15       29.97S
HALSTAD          N/A     46  28  49 SE13        N/A
FOSSTON        CLOUDY    45  21  39 SE14G20   29.97S
BAUDETTE       PTSUNNY   37  24  59 SE7       30.05S
WASKISH        CLOUDY    39  25  56 E5        30.05S
CROOKSTON      CLOUDY    46  28  49 SE15      29.95S
$$
  *****  WEATHER ACROSS CENTRAL AND WEST MINNESOTA  *****

CITY           SKY/WX    TMP DP  RH WIND       PRES   REMARKS
BEMIDJI        CLOUDY    38  24  57 SE10      30.02S
PARK RAPIDS    CLOUDY    42  25  50 SE13      30.00S
WADENA         CLOUDY    43  27  52 SE13      30.00R
DETROIT LAKES  CLOUDY    45  28  53 SE14G21   29.98R
MOORHEAD       DRIZZLE   45  37  76 S20G28    29.94S
FERGUS FALLS   LGT RAIN  43  34  70 SE18G24   29.95S
ELBOW LAKE     LGT RAIN  40  37  87 SE18G24   29.98R
MORRIS MN      LGT RAIN  41  37  87 SE21      29.97S
STAPLES        CLOUDY    43  25  49 SE9       30.03R
WHEATON        MIX PCPN  45  41  87 SE24G31   29.95F
$$
  *****  WEATHER ELSEWHERE ACROSS MINNESOTA  *****

CITY           SKY/WX    TMP DP  RH WIND       PRES   REMARKS
DULUTH         PTSUNNY   35  25  66 SE7       30.11S
INTRNTL FALLS  SUNNY     35  26  69 SE6       30.09R
ELY            SUNNY     36  25  64 CALM      30.13R
CLOQUET        CLOUDY    34  27  75 E3        30.11S
BRAINERD       CLOUDY    46  26  45 SE9       30.05S
HIBBING        CLOUDY    33  27  78 CALM      30.11R
ALEXANDRIA     LGT RAIN  42  32  67 SE12      30.01R
SAINT CLOUD    CLOUDY    45  26  47 SE15      30.05F
MINNEAPOLIS    CLOUDY    43  28  55 SE13      30.10S
$$

  *****  WEATHER ACROSS SOUTH DAKOTA  *****

CITY           SKY/WX    TMP DP  RH WIND       PRES   REMARKS
SIOUX FALLS    CLOUDY    49  36  61 SE25G37   29.86R
BROOKINGS      NOT AVBL
WATERTOWN      CLOUDY    47  37  68 SE15G25   29.84F
HURON          LGT RAIN  52  35  52 SE16G31   29.74R
SISSETON         N/A     43  40  89 SE25G33   29.89S
ABERDEEN       LGT RAIN  48  38  68 SE17G28   29.78S
MITCHELL       PTSUNNY   52  36  54 SE32G43   29.72F
PIERRE         CLOUDY    52  35  52 E22       29.55R
MOBRIDGE       CLOUDY    51  37  58 SE29G38   29.55F
RAPID CITY     CLOUDY    56  43  61 CALM      29.43F
$$

  *****  SOME WEATHER IN NEARBY STATES *****

CITY           SKY/WX    TMP DP  RH WIND       PRES   REMARKS
GLASGOW MT     LGT RAIN  48  43  82 W17G24    29.43R
GREAT FALLS MT CLOUDY    36  26  67 SW16      29.63R
CHEYENNE WY    PTCLDY    45  32  60 NW23G33   29.65R
SCOTTSBLUFF NE CLOUDY    51  44  77 W7        29.57R
OMAHA NE       LGT RAIN  52  39  61 SE18      29.94F
DES MOINES IA  CLOUDY    50  31  48 SE10      30.07R
DAVENPORT IA   MOSUNNY   41  29  62 E16       30.15F
CHICAGO IL     MOSUNNY   40  26  57 NE14      30.17R
EAU CLAIRE WI  PTSUNNY   39  28  64 W3        30.14R
LA CROSSE WI   MOSUNNY   41  28  60 E5        30.16R
$$

  *****  SOME NATIONAL WEATHER *****

CITY           SKY/WX    TMP DP  RH WIND       PRES   REMARKS
LA GUARDIA NY  PTSUNNY   50  34  54 NW16G24   29.58R
RALEIGH NC     MOSUNNY   61  34  36 VRB5      29.83R
ATLANTA GA     SUNNY     59  47  64 NW10      29.95R
NEW ORLEANS LA SUNNY     69  64  84 N10       29.98R
OKLAHOMA CITY  MOSUNNY   58  44  60 S10       29.90R
ALBUQUERQUE NM MOCLDY    53  28  38 SE6       29.88R
SALT LAKE CITY MOCLDY    41  29  62 NW7       29.97R
LOS ANGELES CA PTCLDY    57  49  74 NE6       29.94R
BOISE ID       PTCLDY    33  29  85 E5        29.99R
SEATTLE WA     LGT RAIN  44  39  82 S12G26    29.90R
$$

*** WEATHER ACROSS MANITOBA...SASKATCHEWAN AND ONTARIO ***
                ***ONTARIO***

CITY           SKY/WX    TMP DP  RH WIND       PRES   REMARKS
GERALDTON      MOSUNNY   32  25  74 CALM      30.13R
THUNDER BAY    MOSUNNY   32  28  86 VRB2      30.18R
SIOUX LOOKOUT  MOSUNNY   34  23  64 S3        30.12R
TORONTO        PTSUNNY   37  28  70 N24G36    29.90R
BIG TROUT LK   SUNNY     36  18  48 NE5       30.14
PICKLE LAKE    PTSUNNY   30  19  64 SE7       30.11R WCI  23
DRYDEN         SUNNY     39  23  52 S7        30.10
KENORA         MOSUNNY   39  23  52 SE9       30.08R
$$
                *** MANITOBA***

CITY           SKY/WX    TMP DP  RH WIND       PRES   REMARKS
BRANDON        CLOUDY    37  32  81 E16       29.84F
DAUPHIN        SUNNY     36  32  87 E13       29.88F
ISLAND LAKE    MOSUNNY   37  34  87 SE3       30.09R
PILOT MOUND      N/A     41  28  60 SE21        N/A
THE PAS        CLOUDY    37  28  70 E9          N/A
THOMPSON       SUNNY     27  23  86 NE10      30.15R WCI  17
WINNIPEG       CLOUDY    43  23  45 SE15      29.97
LYNN LAKE      SUNNY     25  19  80 E14       30.16  WCI  13
CHURCHILL      CLOUDY    21  19  93 NW13      30.29  WCI   9
GILLAM         MOSUNNY   27  23  86 NE9G17    30.21R WCI  17
$$
                ***SASKATCHEWAN***

CITY           SKY/WX    TMP DP  RH WIND       PRES   REMARKS
ESTEVAN        CLOUDY    45  37  76 E23G30    29.53F
KINDERSLEY     LGT RAIN  43  39  87 E20       29.41S
LLOYDMINSTER   CLOUDY    43  34  70 E22G31    29.47S
PRINCE ALBERT  CLOUDY    41  34  75 E16       29.72F
REGINA         CLOUDY    46  34  61 E35       29.51F
YORKTON        SUNNY     43  32  65 E20G29    29.74



USA.gov is the U.S. government's official web portal to all federal, state and local government web resources and services.